Lapse_Rate
1.0 1.1 1.3 1.6 1.3 1.4 1.4 1.3 1.5 1.6 1.9 2.2 2.5 2.8 3.1 3.3 3.4 3.4 3.4 3.2 3.5 4.0 4.3 4.5 4.8 5.0 4.7 4.7 4.6 4.5 4.6 4.4 4.5 4.7 4.8 4.8 4.9 5.0 5.0 4.9 4.8 5.0 5.4
1.2 1.0 1.0 1.5 1.2 1.3 1.3 1.5 1.4 1.5 1.6 1.9 2.1 2.2 2.3 2.5 2.7 2.9 3.1 3.3 3.5 3.9 4.3 4.4 4.7 4.6 4.7 4.9 4.7 4.7 4.5 4.5 4.5 4.5 4.6 4.6 4.6 4.7 4.6 4.9 5.1 5.5 5.6
0.9 1.2 1.1 1.4 1.2 1.0 1.5 1.6 1.8 2.0 2.0 2.0 2.0 2.0 2.2 2.4 2.6 2.7 2.9 3.1 3.5 4.0 4.2 4.5 4.7 4.8 5.1 4.9 4.8 4.8 4.7 4.6 4.8 4.5 4.3 4.1 4.2 4.4 4.1 4.2 4.9 5.2 5.3
0.6 1.2 1.3 1.2 1.2 1.3 1.4 1.7 2.0 2.3 2.4 2.3 2.2 2.2 2.3 2.4 2.5 2.6 2.7 3.0 3.4 4.0 4.5 4.7 4.6 4.8 4.8 4.6 4.8 4.5 4.5 4.7 4.9 4.8 4.6 4.5 4.7 4.5 4.2 4.1 4.5 5.0 5.0
0.8 1.2 1.2 1.2 1.3 1.3 1.6 1.8 2.0 2.1 2.1 2.1 2.1 2.1 2.1 2.2 2.2 2.3 2.5 2.8 3.3 3.8 4.3 4.6 4.5 4.2 4.2 4.6 4.9 4.8 4.5 4.7 5.2 4.7 4.6 4.4 4.4 4.7 4.3 3.9 3.9 4.1 4.7
0.7 1.0 0.7 1.2 1.3 1.4 1.7 2.0 1.9 1.9 1.9 1.9 2.0 2.0 2.1 2.2 2.0 2.0 2.3 2.8 3.3 3.7 3.9 4.0 4.1 3.9 4.0 4.6 4.8 5.0 5.6 5.2 4.9 4.8 4.8 4.6 4.5 5.0 4.5 3.9 3.8 3.8 3.9
0.3 0.5 0.7 1.0 1.3 1.7 1.9 2.0 2.0 1.9 1.7 1.9 1.8 1.9 2.0 2.0 1.9 1.8 2.0 2.3 2.9 3.1 3.3 3.3 3.3 3.6 4.0 4.4 4.5 4.2 5.1 4.7 5.2 4.7 4.6 4.4 4.8 5.2 4.8 4.2 3.9 3.8 3.8
-0.7 0.2 0.8 1.0 1.5 1.8 2.0 2.0 1.9 1.9 1.7 1.8 1.9 1.9 2.0 1.9 1.8 1.9 2.0 2.0 2.2 2.3 2.5 2.8 3.1 3.5 3.9 4.1 4.1 3.7 4.8 4.9 5.1 4.6 4.4 4.5 5.0 5.2 4.8 4.3 3.8 3.7 3.9
-0.3 -0.3 0.7 1.4 1.7 1.7 1.6 1.5 1.7 1.9 1.8 1.7 1.9 1.9 2.0 1.9 1.9 1.9 1.9 2.0 2.0 2.1 2.3 2.5 2.9 3.3 3.8 3.9 3.5 3.9 4.4 4.4 4.5 4.3 4.2 4.6 5.1 5.3 4.8 4.5 4.2 3.8 3.8
-0.1 0.6 1.1 1.1 1.7 1.8 1.7 1.3 1.6 2.0 1.9 1.9 1.9 1.9 2.0 2.0 2.0 1.9 1.8 1.8 2.0 2.0 2.2 2.4 2.7 3.0 3.3 3.3 3.0 2.7 3.3 4.4 4.5 4.5 4.4 4.7 5.0 5.4 5.0 4.6 4.2 3.6 3.7
1.3 1.9 2.3 1.4 1.5 1.7 1.7 1.6 1.7 2.1 2.1 2.0 1.9 1.9 1.8 1.2 1.6 1.7 1.7 1.8 2.0 2.1 2.2 2.4 2.6 2.7 2.6 3.0 3.7 3.4 3.9 3.9 4.2 3.5 4.0 4.7 4.9 5.3 4.9 4.3 4.2 3.8 3.6
1.3 1.9 2.3 1.5 2.3 2.0 2.3 1.9 2.0 2.4 2.2 1.9 1.4 0.9 0.6 0.9 1.1 1.4 1.6 1.9 2.0 2.2 2.2 2.4 2.4 2.4 2.4 2.4 3.3 3.6 3.9 4.3 4.0 3.9 4.2 4.9 4.9 5.1 4.6 4.1 4.1 4.2 4.1
0.9 2.0 2.6 2.8 2.0 2.0 2.6 2.7 2.5 2.3 2.0 1.6 1.0 0.6 0.5 0.5 1.0 1.1 0.8 1.2 1.3 1.8 1.6 1.9 2.0 2.0 2.4 2.3 3.0 3.4 4.0 4.4 3.8 3.9 4.6 5.0 4.8 5.1 4.8 4.4 4.3 4.4 4.4
0.5 1.4 2.3 2.7 2.9 2.9 2.6 3.1 3.0 3.0 2.7 2.1 1.0 0.4 0.4 0.2 -0.2 -0.2 -0.2 -0.0 0.2 0.9 0.6 1.1 1.4 2.1 2.5 3.2 3.5 3.7 4.3 4.6 3.9 3.7 4.6 5.2 4.9 5.3 5.5 5.2 5.0 4.8 4.7
0.6 1.3 1.9 2.2 2.1 2.5 2.7 2.7 2.9 2.4 2.1 1.6 0.5 0.2 0.3 0.0 -0.4 -0.4 -0.4 -0.5 -0.1 0.2 0.2 0.1 0.9 1.7 2.5 3.2 3.8 3.9 4.3 4.4 4.0 4.0 4.3 5.0 5.0 5.3 5.7 5.9 5.7 5.4 5.2
1.3 0.9 1.5 1.8 1.8 2.2 2.2 2.5 2.3 1.2 1.1 0.5 0.4 0.2 0.1 0.2 -0.0 -0.2 -0.7 -0.6 -0.6 0.0 0.5 0.7 1.1 1.8 2.2 3.1 3.4 4.0 4.5 4.7 4.4 3.9 4.2 4.7 5.1 5.2 5.8 6.2 6.1 6.4 5.9
1.9 1.5 0.8 1.3 1.4 1.3 1.7 2.0 1.4 1.1 0.8 0.5 0.6 0.4 0.6 0.4 0.1 0.2 -0.2 -0.6 -0.1 0.3 0.7 0.9 1.8 2.4 2.2 2.6 3.1 4.1 5.0 5.3 4.9 4.2 4.7 5.0 4.9 5.4 5.2 5.4 5.5 5.9 6.4
2.6 1.8 1.3 1.6 0.4 0.2 0.1 0.4 1.0 1.2 0.8 0.7 0.7 0.8 0.9 0.9 0.9 0.3 0.3 0.5 1.1 0.8 1.0 0.8 1.4 2.0 2.1 2.3 2.9 4.0 4.1 5.4 5.4 5.4 4.7 4.5 4.4 4.4 5.0 5.2 5.9 6.0 5.5
1.8 1.7 1.6 1.9 0.9 0.4 0.1 0.3 1.0 0.8 0.8 0.8 0.9 1.3 1.2 1.4 1.5 1.3 1.0 1.3 1.6 1.3 1.4 1.7 1.7 2.2 2.5 2.6 2.9 3.5 3.9 4.1 4.6 4.9 4.8 5.1 5.1 4.9 4.9 4.6 3.7 4.5 4.9
2.6 2.0 1.6 1.7 1.1 1.5 0.6 1.0 1.2 0.9 1.1 1.3 1.2 1.5 1.8 2.1 2.0 1.9 1.8 1.8 1.9 1.4 1.6 1.6 2.3 2.1 2.8 3.0 4.3 4.5 3.9 3.4 2.4 3.0 3.6 4.6 4.6 4.8 4.6 2.4 1.7 1.8 3.6
3.0 2.7 2.3 2.1 1.5 2.1 1.4 1.2 1.6 1.2 1.1 1.4 1.8 2.1 2.2 2.6 2.5 2.4 2.4 1.9 2.2 2.5 2.5 2.0 2.2 2.7 2.9 3.0 3.3 3.6 2.9 2.5 2.1 2.5 2.9 2.7 2.7 2.6 1.8 0.9 0.3 0.5 1.6
2.9 2.1 2.1 2.3 1.8 1.7 2.3 2.0 2.3 2.3 1.9 2.1 2.2 2.2 2.6 2.6 2.7 2.9 3.1 2.5 2.5 2.6 2.2 2.0 2.9 2.7 3.1 2.5 3.0 2.9 4.3 3.3 1.9 1.6 1.6 1.5 0.7 1.2 0.5 -0.1 -0.1 -0.3 0.2
4.4 3.0 2.2 1.6 2.0 2.0 2.3 3.4 2.5 2.2 2.0 2.1 2.5 2.4 2.7 2.9 3.1 3.2 3.5 3.2 2.4 3.2 2.7 2.0 2.5 3.2 3.0 2.1 2.6 3.1 3.3 3.7 2.2 1.6 0.3 0.7 0.3 0.2 0.1 -0.3 -0.6 -0.9 -0.8
4.3 3.4 2.6 1.9 1.5 2.4 2.9 2.7 3.1 2.0 2.2 2.1 2.5 2.2 2.9 3.2 3.1 3.3 3.3 3.5 2.5 3.0 2.4 2.3 2.2 2.5 2.7 2.7 2.0 2.1 2.5 2.0 2.9 3.9 4.0 2.5 1.9 1.4 0.6 0.3 -0.7 -0.8 -1.0
3.8 4.3 3.4 2.7 1.5 2.1 2.7 2.2 2.1 2.7 2.9 2.0 2.3 1.8 2.3 2.8 3.1 3.1 3.5 2.9 3.2 2.3 2.5 2.1 1.7 2.1 2.2 2.4 2.4 1.8 2.2 1.6 1.5 1.6 3.1 2.7 1.8 0.5 0.1 -0.4 -1.1 -1.0 -1.0
3.2 3.8 3.2 4.1 2.9 1.9 2.6 2.7 1.9 1.7 2.7 2.6 1.9 1.4 1.6 1.4 2.5 2.7 2.9 3.3 3.7 3.1 2.6 2.3 2.5 2.4 2.6 2.2 2.1 2.1 2.1 1.7 1.9 0.6 1.4 3.5 1.6 0.8 0.4 -0.4 -0.8 -0.7 -0.2
Wind_Speed
9 17 20 19 28 29 28 28 26 25 25 27 27 27 26 24 22 21 20 20 20 20 18 18 19 18 18 18 18 17 16 15 16 16 17 17 17 17 17 15 14 13 13
16 22 23 21 26 28 28 28 28 27 27 27 27 26 25 24 23 21 20 20 20 20 18 18 19 18 18 17 16 16 16 16 16 15 15 16 17 16 17 16 17 15 14
17 21 22 22 27 27 26 25 25 26 27 27 27 26 26 24 23 22 21 20 19 19 18 18 18 18 17 16 15 13 11 8 11 13 12 13 14 16 17 17 17 17 16
17 21 20 23 28 27 26 24 23 23 24 24 24 24 23 23 22 22 20 19 18 18 17 17 18 16 16 15 13 11 8 5 3 6 7 8 11 15 16 15 15 15 15
16 20 19 21 26 27 26 25 24 22 22 21 21 21 21 21 21 21 20 19 18 17 16 16 16 14 14 12 10 8 7 7 8 9 8 8 8 13 14 15 14 15 15
16 18 21 20 25 27 26 25 24 22 21 20 20 19 20 19 20 19 19 18 18 16 15 13 13 12 10 8 8 7 9 10 16 13 10 6 7 12 14 15 15 14 15
15 17 21 21 24 26 26 25 24 22 22 20 19 19 18 19 19 19 18 18 17 17 15 12 10 10 8 6 7 8 9 11 16 13 11 8 7 12 13 14 14 14 14
18 16 20 21 23 26 25 24 23 23 22 21 20 19 18 17 18 19 18 18 17 17 16 14 11 7 4 4 7 8 10 12 14 13 12 9 8 11 12 13 14 13 13
13 16 18 19 20 23 24 24 24 23 23 23 21 20 19 19 19 19 19 18 17 16 15 13 10 7 4 2 8 8 8 9 12 12 10 11 9 10 11 12 13 13 11
10 11 13 16 18 18 20 24 25 24 24 24 23 22 21 19 18 18 18 18 17 16 14 12 10 7 4 2 5 7 7 6 5 7 11 11 11 10 10 11 11 11 10
9 12 15 12 14 15 15 18 22 24 24 24 22 22 21 15 15 16 16 17 16 15 14 12 9 6 4 2 3 6 5 3 2 5 12 14 11 10 10 9 9 9 9
18 16 13 12 13 15 14 16 14 17 16 15 15 17 14 16 15 13 15 15 14 13 12 10 8 5 2 1 2 5 4 4 3 8 11 13 10 9 9 9 8 8 7
15 13 15 14 13 12 9 14 12 13 13 12 14 15 14 13 13 12 12 12 11 11 8 6 4 3 3 2 1 3 2 4 4 8 11 12 10 9 9 8 7 6 6
18 16 17 16 16 14 13 11 14 11 14 12 13 16 13 10 9 9 9 11 12 12 9 7 6 5 4 3 2 2 1 1 3 9 11 12 10 10 9 8 7 6 5
17 18 20 18 17 16 13 12 12 11 13 14 14 15 14 10 5 10 8 11 11 12 11 9 8 7 5 4 5 3 1 3 3 10 11 13 12 11 10 10 8 8 6
16 18 20 20 19 17 14 16 12 12 14 13 14 15 16 13 10 9 6 7 9 14 13 12 8 5 3 4 4 7 5 6 7 9 12 14 14 13 11 10 9 7 7
17 16 19 22 20 19 17 15 9 11 13 10 12 16 17 14 12 11 6 4 9 14 12 8 5 5 3 3 5 6 6 8 8 11 14 15 16 17 13 10 7 3 5
17 19 18 16 18 18 15 12 9 11 12 11 13 14 17 15 16 11 5 5 11 11 10 5 3 3 3 3 3 4 3 7 8 10 11 13 10 8 12 10 5 2 6
21 19 19 18 19 19 15 12 11 11 8 12 13 14 17 17 16 12 7 8 11 7 5 4 3 3 3 4 5 3 3 2 2 2 3 5 8 9 8 5 9 9 11
19 19 19 17 17 16 11 9 8 8 8 12 11 14 17 18 17 13 9 8 10 4 4 3 3 3 3 4 3 3 2 1 1 1 2 3 3 4 7 16 17 20 23
18 18 18 18 17 13 11 11 10 11 11 10 9 16 17 18 17 14 7 7 9 7 7 7 4 5 3 3 3 1 2 3 5 3 4 4 8 10 16 17 15 17 19
21 22 20 20 19 17 14 13 9 11 9 9 8 10 18 18 18 16 12 9 9 6 6 7 5 3 2 4 3 2 1 2 4 7 4 4 6 11 14 17 18 18 17
21 22 21 23 22 21 19 11 4 5 3 6 9 9 12 17 19 18 15 10 8 9 8 7 7 7 4 1 2 4 2 3 3 4 6 6 7 6 12 16 17 18 17
22 22 23 23 23 20 19 16 20 16 13 13 11 10 12 17 14 18 15 13 11 9 9 10 8 5 5 5 0 1 2 4 3 3 4 5 7 8 7 11 14 14 15
24 21 22 22 22 22 22 21 18 17 13 9 10 14 14 13 13 14 15 13 12 8 9 10 8 6 4 4 4 3 2 2 1 3 3 2 6 5 7 9 11 12 14
22 22 20 23 23 22 23 23 23 23 17 12 13 12 12 11 11 14 14 14 13 11 10 9 10 10 9 5 4 5 4 4 4 4 4 4 5 4 5 8 9 11 13
Wind_Direction
182 166 162 156 130 130 129 128 129 126 121 117 116 117 117 117 119 121 120 115 113 111 111 109 104 104 104 102 100 96 91 83 79 79 81 79 76 73 68 65 66 69 75
153 160 158 155 134 132 129 133 132 132 128 125 125 125 126 128 129 126 122 120 117 117 117 113 110 108 103 99 92 86 82 79 71 69 72 79 77 74 68 65 67 68 71
148 154 155 156 137 133 133 131 129 129 130 132 133 134 135 134 130 126 122 120 119 119 117 113 111 105 100 90 83 83 83 81 67 76 73 71 80 78 71 63 65 65 64
146 151 158 155 138 138 136 133 130 129 130 131 133 134 134 132 129 124 122 121 121 120 118 113 109 105 100 90 85 80 71 55 108 116 71 75 84 85 82 77 74 73 72
146 150 156 151 142 140 140 138 136 135 134 134 133 133 131 129 127 126 126 125 123 122 118 114 113 112 105 99 92 83 64 46 132 131 106 87 88 90 86 81 73 69 69
144 148 147 149 143 142 143 143 141 141 139 138 137 135 133 133 130 130 130 128 126 123 120 120 118 116 109 104 98 80 61 81 117 124 112 92 94 99 94 88 81 74 69
145 145 149 151 147 147 148 147 145 146 144 142 141 140 141 140 136 134 134 131 130 129 127 126 123 121 119 108 84 72 72 86 127 126 120 114 112 106 99 95 89 81 77
145 146 152 152 152 152 152 150 149 151 149 147 147 146 146 143 139 138 135 132 134 136 138 141 139 130 123 107 84 71 72 92 135 129 129 128 130 115 106 98 93 86 79
143 145 153 158 156 154 154 153 153 156 154 152 153 152 151 149 146 144 142 140 143 143 144 147 146 148 149 93 78 65 58 82 135 139 137 140 141 125 113 106 101 95 90
134 147 155 156 158 160 161 156 157 159 159 158 158 158 156 155 154 152 149 149 152 151 153 157 156 164 154 63 53 68 54 75 96 157 150 152 152 137 125 117 111 105 98
150 162 170 162 158 161 161 163 159 162 163 162 160 160 157 153 159 158 159 158 157 159 163 163 165 170 153 113 28 55 69 73 91 151 168 162 157 146 136 129 124 113 101
171 174 174 167 167 163 161 163 164 166 165 164 161 159 155 156 162 167 166 165 163 169 171 170 174 172 139 47 26 69 64 48 60 141 160 163 162 158 153 149 135 116 104
163 170 177 175 168 166 164 168 170 169 168 166 162 161 157 155 160 169 167 171 169 177 175 176 179 185 193 198 312 51 64 42 91 155 165 172 175 172 170 164 152 130 118
169 171 176 179 179 179 172 176 177 176 176 177 174 162 160 161 160 169 173 177 176 182 177 188 189 215 231 239 253 333 70 204 170 169 175 183 189 190 185 181 175 163 145
172 172 178 178 181 179 178 178 180 181 181 181 176 173 168 170 171 171 184 181 189 187 186 189 198 202 214 244 265 268 201 196 174 171 182 193 202 211 205 199 193 184 174
172 178 175 181 182 180 180 182 184 180 176 176 178 180 176 176 174 179 178 194 193 195 200 198 192 190 203 213 255 251 235 198 173 180 186 197 208 214 219 216 197 187 178
185 174 180 178 181 182 181 183 181 178 175 180 184 181 184 180 178 177 183 185 203 201 203 211 203 186 196 225 248 254 226 197 184 190 192 203 211 217 216 224 218 221 61
178 182 180 179 179 180 179 176 176 178 179 183 184 187 187 189 183 177 180 201 198 188 189 189 184 197 225 218 246 238 207 200 197 203 203 209 212 212 216 215 204 90 81
184 179 183 185 184 184 179 173 177 177 181 185 182 189 191 191 192 187 188 201 191 180 187 187 184 171 193 230 232 244 226 230 170 248 206 223 218 210 203 155 85 97 97
187 186 183 186 183 184 172 169 174 177 186 187 189 191 190 195 193 192 192 197 181 174 193 173 184 187 190 205 183 214 232 281 54 310 309 351 25 183 131 103 82 71 85
190 185 186 183 180 177 175 177 181 188 188 193 198 192 191 196 194 192 199 196 188 193 196 193 171 178 211 158 108 7 2 43 47 20 52 82 83 79 95 101 91 84 73
191 190 186 188 181 183 187 188 190 187 199 190 192 196 198 195 193 195 199 202 195 188 186 180 168 139 188 174 143 88 240 5 42 22 40 69 73 88 85 91 93 84 76
196 194 191 187 186 187 186 179 169 152 123 174 194 196 202 197 197 200 202 201 192 193 194 185 183 168 159 182 186 141 114 203 102 2 23 44 51 64 76 84 85 87 88
202 197 195 190 188 191 179 180 187 187 188 205 196 193 198 201 200 198 197 201 195 198 194 189 185 170 146 164 158 126 107 145 159 123 28 37 59 66 75 83 88 87 87
207 198 197 192 190 188 187 185 189 197 205 188 193 189 194 200 202 199 198 195 197 194 199 191 177 175 172 159 154 152 115 77 148 144 146 131 72 42 58 70 76 88 84
210 205 194 194 194 189 191 192 191 199 193 184 186 191 193 192 197 201 198 200 199 200 195 193 191 186 191 170 167 169 163 181 194 140 108 132 117 57 60 55 66 82 93